Location: Baia Mare
(47.6567°N, 23.5850°E)
Time: 07:42:43
(UTC+03:00)

ISS - Pass Details

Date: 20 May 2018
Orbit: 402 x 407 km, 51.6° (Epoch: 21 May)

Event Time Altitude Azimuth Distance (km) Brightness Sun altitude
Exits shadow 01:06:23 50° 354° (N) 522 -3.0 -22.3°
Drops below altitude 10° 01:09:29 10° 64° (ENE) 1,459 -0.8 -22.4°
Sets 01:11:36 0° 69° (ENE) 2,319 0.2 -22.4°
